Location: Newark
(51.4502°N, 2.1514°W)
Time: 14:54:02
(UTC+00:00)

N. Korean satellite - Visible Passes

Search period start: 27 September 2020 00:00
Search period end: 07 October 2020 00:00
Orbit: 455 x 503 km, 97.2° (Epoch: 26 September)

Date Brightness Start Highest point End Pass type
(mag) Time Alt. Az. Time Alt. Az. Time Alt. Az.
27 Sep 10.4 04:29:45 10° ENE 04:30:17 10° E 04:30:48 10° E visible
29 Sep 9.1 05:08:50 10° NE 05:11:58 27° E 05:15:03 10° SSE visible
30 Sep 9.9 04:43:36 10° NE 04:45:42 15° E 04:47:47 10° SE visible
02 Oct 8.3 05:23:52 10° NNE 05:27:17 38° E 05:30:37 10° SSE visible
03 Oct 9.5 04:58:17 10° NE 05:01:04 21° E 05:03:47 10° SE visible
04 Oct 10.2 04:33:35 10° ENE 04:34:44 11° E 04:35:52 10° ESE visible
05 Oct 7.3 05:38:57 10° NNE 05:42:31 58° E 05:45:59 10° S visible
06 Oct 8.8 05:13:10 10° NNE 05:16:20 29° E 05:19:28 10° SSE visible
